Overview Statistics Trail Chart Weather Telemetry Raw packets
 

This is the latest recevied weather packets stored in our database for station/object N5JXS. If no packets are shown the sender has not sent any weather packets the latest 10 day(s).

<< 69 70 71 72 73 74 75 >>
Time Temp. Humidity Pressure Rain* Wind** Luminosity Snow
1788131170 17.78° C 65% 1027 hPa 0 mm - 62 W/m² -
1788130864 17.78° C 65% 1026.8 hPa 0 mm - 90 W/m² -
1788130559 17.78° C 65% 1026.8 hPa 0 mm - 80 W/m² -
1788130254 17.78° C 64% 1026.6 hPa 0 mm - 125 W/m² -
1788129952 17.78° C 63% 1026.8 hPa 0 mm - 134 W/m² -
1788129649 17.78° C 62% 1026.8 hPa 0 mm - 109 W/m² -
1788129346 18.33° C 60% 1026.3 hPa 0 mm - 90 W/m² -
1788129040 18.33° C 59% 1026.5 hPa 0 mm - 149 W/m² -
1788128734 18.33° C 58% 1026.6 hPa 0 mm - 138 W/m² -
1788128431 18.89° C 56% 1026.5 hPa 0 mm - 65 W/m² -
1788128126 20.56° C 50% 1026.6 hPa 0 mm - 28 W/m² -
1788127822 22.22° C 45% 1026.6 hPa 0 mm - 57 W/m² -
1788127521 22.78° C 45% 1025.7 hPa 0 mm - 46 W/m² -
1788127220 22.78° C 44% 1025.7 hPa 0 mm - 39 W/m² -
1788126914 22.78° C 44% 1025.6 hPa 0 mm - 37 W/m² -
1788126609 22.78° C 43% 1025.1 hPa 0 mm - 27 W/m² -
1788126304 22.78° C 42% 1025.3 hPa 0 mm - 28 W/m² -
1788125998 23.33° C 43% 1025.2 hPa 0 mm - 29 W/m² -
1788125693 23.33° C 41% 1025.2 hPa 0 mm - 29 W/m² -
1788125389 23.33° C 40% 1024.8 hPa 0 mm - 29 W/m² -
1788125084 23.89° C 40% 1025.1 hPa 0 mm - 38 W/m² -
1788124784 23.89° C 39% 1025.3 hPa 0 mm - 42 W/m² -
1788124479 23.89° C 39% 1025.2 hPa 0 mm - 57 W/m² -
1788124174 23.89° C 38% 1025.2 hPa 0 mm - 67 W/m² -
1788123874 23.89° C 38% 1025.5 hPa 0 mm - 89 W/m² -

* Rain latest hour (hover to see other rain measurements)
** Current wind speed in m/s (hover to see current wind gust speed)